logo dgac
Miércoles 10 de Agosto del 2022
Buscar por aerodromo o helipuerto
Ingrese nombre de aeródromo, localidad o designador OACI:

Aeródromo: Cochrane (PUB) (SCHR)

Ubicación: Cochrane, XI Región, Chile (47º 14' 37'' S, 72º 35' 16'' W) Ver ubicación en el mapa

Pistas

Orientación Dimensión Pendiente Superficie Resistencia APCH THR RWY PAPI
07/25 1050 x 23 2,00 ASPH /CONCRETO 23.000 Kg No No No No
Horas de operación HJ
Elevación 196 m / 643 ft
Otra Información Adm : D.G.A.C.
Uso : PUB
Ubicado : 3 km NW Cochrane
TEL (FAX) 67 2522121
email : aro.cochrane@dgac.gob.cl

Al FCCV restar 30 minutos

Otra información ver AIP-Chile Volumen I AD 3.9-3.10-C
CCCM/FCCV Descargar
andera de Chile
Mapa de Cochrane (PUB) (SCHR)

Último METAR

METAR SCHR 101700Z 33006KT 9999 SCT035 12/04 Q1005

Último TAF

TAF SCHR 101043Z 1012/1100 31005KT 9000 -SHRA FEW034 BKN060 TN05/1012Z TX09/1018Z BECMG 1014/1016 27005KT 9999 NSW SCT060

Últimas fotos cámaras

Imagen aerodromo Cochrane (PUB) (SCHR) Oeste tomada el 10-08-2022 05:13:40 Imagen aerodromo Cochrane (PUB) (SCHR) Este tomada el 10-08-2022 05:13:39

Último NOTAM

No hay notams registrados para este aeródromo